Weather in Pushkino

Russia / Lipetsk Oblast     52°19′52″N   40°21′55″E
temp.,
°C
wind,
m/s
gust,
m/s
humid.,
%
clouds,
%
prec.,
mm/h
press.,
hPa
HPBL,
m
17 may, tue
tue1700:00+5w4989100 0.0 1009166
03:00+5w498766 0.0 1008228
06:00+6w512840 0.0 1008497
09:00+10wnw8106999 0.1 10071418
12:00+11wnw81166100 0.3 10061395
15:00+12wnw91265100 1.3 10051701
18:00+9nw71380100 0.9 10061189
21:00+7wnw5108889 1.0 1006500
18 may, wed
wed1800:00+6w5108999 0.0 1006487
03:00+6w5993100 0.7 1006484
06:00+7w5994100 0.3 1006472
09:00+9nw359085 0.7 1008495
12:00+12n557298 0.9 10091123
15:00+12nnw6777100 1.7 1011855
18:00+12n477330 0.3 10121123
21:00+7nnw22884 0.3 101413
19 may, thu
thu1900:00+6nw38895 0.0 1015143
03:00+5nnw49945 0.0 1017200
06:00+6nw49865 0.0 1018297
09:00+11wnw466128 0.0 1018942
12:00+14wnw685124 0.0 10171757
15:00+14wnw696090 0.0 10161290
18:00+13nw6106794 0.6 1015771
21:00+8n239179 0.7 101729
20 may, fri
fri2000:00+7wnw119055 0.0 101710
03:00+8nw3492100 0.4 1016114
06:00+8wnw249597 0.6 1017186
09:00+12nnw346941 0.7 10171023
12:00+14n455742 0.5 10171546
15:00+13nne5558100 0.7 10171137
18:00+11ne4463100 0.0 1017839
21:00+8ene3472100 0.0 101762
21 may, sat
sat2100:00+7ese3467100 0.0 101662
03:00+5ese3669100 0.0 1014116
06:00+7ese51070100 0.0 1013333
09:00+7ese61186100 1.8 1011546
12:00+4e81395100 8.2 1010798
15:00+6ene71291100 13.5 1010953
18:00+6ene6128678 1.5 1010778
21:00+4ne229210 1.5 101122